Notices

What's New in latest Release from April 7th, 2021:

- Updated Glossary, including Speed of Maximum Gust, and Total Hourly Precipitation

- Updated national and regional climate services offices contacts and prices information

- Addition of station inventory lists for 1981-2010, 1971-2000, and 1961-1990 Normals.

If you haven't already, please take our survey and provide feedback about our website: https://eccc.sondage-survey.ca/f/LanguageSelection.aspx?s=442ca660-fcf1-47c0-95a9-59707d6fd709

Hourly Data Report for December 16, 2018

CARBERRY CS
MANITOBA
Current Station Operator: ECCC - MSC

49°54'20.900" N
99°21'26.800" W
383.50 m
5010547
71170
WZE

Download Data

Hourly Data (December 2018)
Hourly Data Report for December 16, 2018
TIME
LST
Temp Definition
°C
Dew Point Definition
°C
Rel Hum Definition
%
Precip. Amount Definition
mm

Wind Dir Definition
10's deg

Wind Spd Definition
km/h
Visibility Definition
km
Stn Press Definition
kPa
Hmdx Definition


Wind Chill Definition


Weather Definition


00:00 1.3 -2.5 75 0.0 28 40   96.31     LegendNANA
01:00 0.6 -4.5 69 0.0 28 44   96.43     LegendNANA
02:00 -0.8 -5.2 72 0.0 26 27   96.59   -7 LegendNANA
03:00 -1.6 -6.2 71 0.0 27 34   96.68   -9 LegendNANA
04:00 -2.3 -7.1 70 0.0 27 32   96.75   -10 LegendNANA
05:00 -3.1 -7.8 70 0.0 27 30   96.82   -11 LegendNANA
06:00 -3.5 -8.2 70 0.0 27 34   96.89   -11 LegendNANA
07:00 -4.0 -8.6 70 0.0 27 39   97.00   -13 LegendNANA
08:00 -4.7 -9.0 72 0.0 27 44   97.06   -14 LegendNANA
09:00 -5.4 -9.7 72 0.0 28 36   97.22   -14 LegendNANA
10:00 -5.7 -10.1 71 0.0 27 38   97.27   -15 LegendNANA
11:00 -5.8 -10.5 69 0.0 28 36   97.41   -15 LegendNANA
12:00 -5.8 -10.7 68 0.0 29 25   97.52   -13 LegendNANA
13:00 -5.8 -10.7 68 0.0 29 31   97.51   -14 LegendNANA
14:00 -5.9 -11.2 66 0.0 28 18   97.60   -12 LegendNANA
15:00 -5.8 -10.9 67 0.0 29 14   97.66   -11 LegendNANA
16:00 -8.1 -12.0 74 0.0 27 20   97.65   -15 LegendNANA
17:00 -9.6 -13.1 76 0.0 29 10   97.72   -15 LegendNANA
18:00 -11.3 -13.8 82 0.0 28 4   97.78   -14 LegendNANA
19:00 -11.2 -14.0 80 0.0 30 8   97.81   -16 LegendNANA
20:00 -11.2 -14.3 77 0.0 34 7   97.84   -15 LegendNANA
21:00 -12.1 -14.8 80 0.0 33 4   97.86   -15 LegendNANA
22:00 -14.0 -16.3 82 0.0 6 7   97.87   -19 LegendNANA
23:00 -13.9 -15.9 85 0.0 14 4   97.87   -17 LegendNANA

Notes on Data Quality.

Legend

  • E = Estimated
  • M = Missing
  • NA = Not Available*
  • [empty] = Indicates an unobserved value
Date modified: